FW3788 Weather Reports


Display with metric or nautical units.
time (UTC)temp
F
wind
direction
speed
MPH
gust
MPH
rain 1hr
in
rain 24hr
in
rain mn
in
humidity
%
barometer
mb
20260502130516 51 168 0.0 0.0 0.00 0.00 0.00 64 1009.6
20260502123517 50 168 0.0 0.0 0.00 0.00 0.00 63 1009.5
20260502123025 50 168 0.0 0.0 0.00 0.00 0.00 63 1009.3
20260502122517 50 168 0.0 0.0 0.00 0.00 0.00 62 1009.4
20260502122018 50 168 0.0 0.0 0.00 0.00 0.00 61 1009.3
20260502121517 50 168 0.0 0.0 0.00 0.00 0.00 61 1009.3
20260502121017 50 168 0.0 0.0 0.00 0.00 0.00 60 1009.3
20260502120517 50 168 0.0 0.0 0.00 0.00 0.00 59 1009.3
20260502115518 50 168 0.0 0.0 0.00 0.00 0.00 60 1009.3
20260502115017 50 168 0.0 0.0 0.00 0.00 0.00 59 1009.4
20260502114617 50 168 0.0 0.0 0.00 0.00 0.00 59 1009.4
20260502114017 50 168 0.0 0.0 0.00 0.00 0.00 58 1009.4
20260502113517 50 168 0.0 0.0 0.00 0.00 0.00 58 1009.5
20260502113017 50 168 0.0 0.0 0.00 0.00 0.00 58 1009.6
20260502112516 50 168 0.0 0.0 0.00 0.00 0.00 58 1009.6
20260502112016 51 168 0.0 0.0 0.00 0.00 0.00 58 1009.6
20260502111520 51 168 0.0 0.0 0.00 0.00 0.00 58 1009.5
20260502111017 50 168 0.0 0.0 0.00 0.00 0.00 58 1009.6
20260502110517 50 168 0.0 0.0 0.00 0.00 0.00 60 1009.6
20260502110018 50 168 0.0 0.0 0.00 0.00 0.00 59 1009.7
20260502105517 50 168 0.0 0.0 0.00 0.00 0.00 58 1009.7
20260502105018 51 168 0.0 0.0 0.00 0.00 0.00 58 1009.7
20260502104517 51 168 0.0 0.0 0.00 0.00 0.00 57 1009.6
20260502104017 50 168 0.0 0.0 0.00 0.00 0.00 58 1009.6
20260502103516 50 168 0.0 0.0 0.00 0.00 0.00 58 1009.5
20260502103017 50 168 0.0 0.0 0.00 0.00 0.00 58 1009.6
20260502102517 50 168 0.0 0.0 0.00 0.00 0.00 57 1009.6
20260502102017 50 168 0.0 0.0 0.00 0.00 0.00 57 1009.4
20260502101531 50 168 0.0 0.0 0.00 0.00 0.00 58 1009.4
20260502101016 50 168 0.0 0.0 0.00 0.00 0.00 56 1009.4
20260502100522 50 168 0.0 0.0 0.00 0.00 0.00 56 1009.6
20260502091517 51 168 0.0 0.0 0.00 0.00 0.00 55 1010.2
20260502091018 51 168 0.0 0.0 0.00 0.00 0.00 55 1010.3
20260502090518 51 168 0.0 0.0 0.00 0.00 0.00 56 1010.4
20260502071517 51 228 0.0 0.0 0.00 0.00 0.00 58 1011.1
20260502071017 51 228 0.0 0.0 0.00 0.00 0.00 54 1011.1
20260502070519 51 228 0.0 0.0 0.00 0.00 0.00 52 1011.1
20260502070017 51 228 0.0 0.0 0.00 0.00 0.00 57 1011.1
20260502065518 52 228 0.0 0.0 0.00 0.00 0.00 52 1011.1
20260502065019 52 228 0.0 0.0 0.00 0.00 0.00 53 1011.1
20260502064516 52 228 0.0 0.0 0.00 0.00 0.00 56 1011.2
20260502064018 52 228 0.0 0.0 0.00 0.00 0.00 54 1011.2
20260502063517 52 228 0.0 0.0 0.00 0.00 0.00 54 1011.1
20260502063026 52 228 0.0 0.0 0.00 0.00 0.00 54 1011.2
20260502062517 52 228 0.0 0.0 0.00 0.00 0.00 57 1011.1
20260502062021 53 228 0.0 0.0 0.00 0.00 0.00 56 1011.1
20260502061517 53 228 0.0 0.0 0.00 0.00 0.00 59 1011.1
20260502061016 53 228 0.0 0.0 0.00 0.00 0.00 58 1011.1
20260502060521 53 228 0.0 0.0 0.00 0.00 0.00 54 1011.1
20260502060017 53 228 0.0 0.0 0.00 0.00 0.00 55 1011.1
20260502055517 54 228 0.0 0.0 0.00 0.00 0.00 53 1011.1
20260502055022 54 228 0.0 0.0 0.00 0.00 0.00 53 1011.2
20260502054517 54 228 0.0 0.0 0.00 0.00 0.00 54 1011.2
20260502054020 54 228 0.0 0.0 0.00 0.00 0.00 53 1011.1
20260502053517 54 228 0.0 0.0 0.00 0.00 0.00 53 1011.1
20260502053017 54 228 0.0 0.0 0.00 0.00 0.00 56 1011.0
20260502052517 54 228 0.0 0.0 0.00 0.00 0.00 57 1011.1
20260502052117 54 228 0.0 0.0 0.00 0.00 0.00 61 1011.0
20260502051517 55 228 0.0 0.0 0.00 0.00 0.00 57 1011.0
20260502051017 56 228 0.0 0.0 0.00 0.00 0.00 53 1010.9
20260502050521 56 228 0.0 0.0 0.00 0.00 0.00 51 1010.9
20260502050033 56 228 0.0 0.0 0.00 0.00 0.00 51 1010.8
20260502045517 56 228 0.0 0.0 0.00 0.00 0.00 54 1010.8
20260502045022 56 228 0.0 0.0 0.00 0.00 0.00 53 1010.8
20260502044517 56 228 0.0 0.0 0.00 0.00 0.00 52 1010.7
20260502044022 56 228 0.0 0.0 0.00 0.00 0.00 52 1010.7
20260502043517 57 228 0.0 0.0 0.00 0.00 0.00 53 1010.7
20260502043017 57 228 0.0 0.0 0.00 0.00 0.00 53 1010.6
20260502042518 58 228 0.0 0.0 0.00 0.00 0.00 55 1010.6
20260502042021 58 228 0.0 0.0 0.00 0.00 0.00 54 1010.5
20260502041518 58 228 0.0 0.0 0.00 0.00 0.00 54 1010.4
20260502041017 59 228 0.0 0.0 0.00 0.00 0.00 53 1010.4
20260502040517 59 228 0.0 0.0 0.00 0.00 0.00 52 1010.3
20260502040017 59 228 0.0 0.0 0.00 0.00 0.00 50 1010.2
20260502035517 60 228 0.0 0.0 0.00 0.00 0.00 50 1010.2
20260502035017 60 228 0.0 0.0 0.00 0.00 0.00 51 1010.0
20260502034518 60 229 0.0 0.0 0.00 0.00 0.00 53 1010.0
20260502034019 61 232 0.0 0.0 0.00 0.00 0.00 52 1009.8
20260502033517 61 240 0.0 0.0 0.00 0.00 0.00 50 1009.9
20260502033020 62 240 0.0 0.0 0.00 0.00 0.00 51 1009.8
20260502032520 62 241 0.0 0.0 0.00 0.00 0.00 50 1009.8
20260502032018 62 248 0.0 0.0 0.00 0.00 0.00 49 1009.7
20260502031518 63 325 0.0 0.0 0.00 0.00 0.00 46 1009.6
20260502031018 64 326 0.0 0.0 0.00 0.00 0.00 45 1009.6
20260502030619 65 326 0.0 0.0 0.00 0.00 0.00 46 1009.5
20260502030018 66 326 0.0 0.0 0.00 0.00 0.00 42 1009.5
20260502025517 66 326 0.0 0.0 0.00 0.00 0.00 41 1009.4
20260502025018 67 326 0.0 0.0 0.00 0.00 0.00 40 1009.4
20260502024517 68 326 0.0 0.0 0.00 0.00 0.00 38 1009.4
20260502024017 68 326 0.0 0.0 0.00 0.00 0.00 38 1009.4
20260502023520 68 326 0.0 4.0 0.00 0.00 0.00 38 1009.3
20260502023019 69 326 1.0 4.0 0.00 0.00 0.00 37 1009.3
20260502022517 69 325 0.0 4.0 0.00 0.00 0.00 36 1009.3
20260502022022 70 324 0.0 4.0 0.00 0.00 0.00 34 1009.2
20260502021617 70 291 0.0 9.0 0.00 0.00 0.00 34 1009.2
20260502021021 70 319 1.0 9.0 0.00 0.00 0.00 33 1009.2
20260502020520 71 328 3.0 8.0 0.00 0.00 0.00 33 1009.3
20260502020018 71 336 1.0 8.0 0.00 0.00 0.00 33 1009.3
20260502015517 72 298 0.0 9.0 0.00 0.00 0.00 32 1009.1
20260502015022 72 303 2.0 9.0 0.00 0.00 0.00 31 1009.2
20260502014525 72 317 1.0 9.0 0.00 0.00 0.00 30 1009.1
20260502014018 73 293 2.0 9.0 0.00 0.00 0.00 30 1009.1
20260502013518 73 295 0.0 8.0 0.00 0.00 0.00 30 1009.1
20260502013017 73 334 4.0 8.0 0.00 0.00 0.00 30 1009.0
20260502012521 73 287 0.0 10.0 0.00 0.00 0.00 31 1009.0
20260502012018 73 332 4.0 10.0 0.00 0.00 0.00 30 1009.0
20260502011517 74 307 2.0 9.0 0.00 0.00 0.00 30 1009.0
20260502011017 74 295 2.0 9.0 0.00 0.00 0.00 30 1009.0
20260502010517 74 314 2.0 8.0 0.00 0.00 0.00 30 1009.1
20260502010023 75 328 2.0 9.0 0.00 0.00 0.00 30 1009.0
20260502005518 75 295 2.0 9.0 0.00 0.00 0.00 31 1009.0
20260502005020 75 296 2.0 9.0 0.00 0.00 0.00 30 1009.0
20260502004518 75 312 2.0 9.0 0.00 0.00 0.00 30 1009.0
20260502004021 76 304 2.0 9.0 0.00 0.00 0.00 30 1009.0
20260502003517 76 295 1.0 9.0 0.00 0.00 0.00 31 1009.0
20260502003017 76 314 5.0 9.0 0.00 0.00 0.00 30 1009.0
20260502002523 77 338 4.0 10.0 0.00 0.00 0.00 30 1009.0
20260502002021 77 342 2.0 10.0 0.00 0.00 0.00 29 1009.0
20260502001518 78 291 2.0 10.0 0.00 0.00 0.00 28 1008.9
20260502001018 78 258 2.0 10.0 0.00 0.00 0.00 28 1008.9
20260502000517 78 296 3.0 10.0 0.00 0.00 0.00 27 1008.9
20260502000018 78 328 2.0 9.0 0.00 0.00 0.00 26 1008.9
20260501235519 78 273 2.0 7.0 0.00 0.00 0.00 26 1009.0
20260501235018 78 282 0.0 8.0 0.00 0.00 0.00 26 1009.0
20260501234517 78 287 2.0 9.0 0.00 0.00 0.00 26 1009.1
20260501234017 78 291 3.0 9.0 0.00 0.00 0.00 26 1009.1
20260501233518 79 349 2.0 10.0 0.00 0.00 0.00 25 1009.1
20260501233018 79 301 3.0 10.0 0.00 0.00 0.00 25 1009.1
20260501232517 79 284 1.0 10.0 0.00 0.00 0.00 25 1009.2
20260501232018 79 268 2.0 10.0 0.00 0.00 0.00 24 1009.3
20260501231517 79 310 2.0 9.0 0.00 0.00 0.00 24 1009.3
20260501231017 79 299 1.0 7.0 0.00 0.00 0.00 23 1009.3
20260501230520 79 288 2.0 11.0 0.00 0.00 0.00 22 1009.4
20260501230017 79 312 2.0 12.0 0.00 0.00 0.00 23 1009.4
20260501225518 79 297 3.0 12.0 0.00 0.00 0.00 22 1009.4
20260501225021 80 299 0.0 6.0 0.00 0.00 0.00 22 1009.6
20260501224517 80 283 1.0 7.0 0.00 0.00 0.00 22 1009.6
20260501224019 80 270 1.0 9.0 0.00 0.00 0.00 24 1009.7
20260501223520 80 293 2.0 9.0 0.00 0.00 0.00 23 1009.8
20260501223017 80 285 0.0 8.0 0.00 0.00 0.00 22 1009.9
20260501222517 80 275 1.0 10.0 0.00 0.00 0.00 22 1009.9
20260501222018 79 270 1.0 10.0 0.00 0.00 0.00 22 1010.0
20260501221523 79 323 1.0 9.0 0.00 0.00 0.00 22 1010.1
20260501221018 80 288 0.0 9.0 0.00 0.00 0.00 22 1010.2
20260501220517 80 305 3.0 9.0 0.00 0.00 0.00 22 1010.3
20260501220017 80 285 0.0 6.0 0.00 0.00 0.00 22 1010.4
20260501215519 80 279 1.0 8.0 0.00 0.00 0.00 23 1010.4
20260501215021 79 292 2.0 10.0 0.00 0.00 0.00 21 1010.4
20260501214518 80 290 1.0 7.0 0.00 0.00 0.00 23 1010.5
20260501214018 79 287 1.0 12.0 0.00 0.00 0.00 23 1010.5
20260501213517 79 318 3.0 9.0 0.00 0.00 0.00 23 1010.6
20260501213017 79 298 2.0 9.0 0.00 0.00 0.00 22 1010.6
20260501212517 80 289 0.0 10.0 0.00 0.00 0.00 23 1010.7
20260501212018 80 262 2.0 10.0 0.00 0.00 0.00 22 1010.7
20260501211518 80 272 0.0 8.0 0.00 0.00 0.00 23 1010.7
20260501211019 80 287 2.0 8.0 0.00 0.00 0.00 24 1010.8
20260501210516 79 296 0.0 11.0 0.00 0.00 0.00 24 1010.7
20260501210016 80 289 3.0 11.0 0.00 0.00 0.00 22 1010.8
20260501205517 79 292 2.0 11.0 0.00 0.00 0.00 23 1010.7
20260501205018 79 293 1.0 11.0 0.00 0.00 0.00 24 1010.7
20260501204523 79 309 1.0 5.0 0.00 0.00 0.00 23 1010.9
20260501204017 79 50 0.0 8.0 0.00 0.00 0.00 26 1010.8
20260501203516 79 347 2.0 8.0 0.00 0.00 0.00 25 1010.9
20260501203018 79 293 1.0 6.0 0.00 0.00 0.00 26 1010.9
20260501202517 79 349 0.0 4.0 0.00 0.00 0.00 24 1010.9
20260501202018 78 350 0.0 9.0 0.00 0.00 0.00 25 1010.9
20260501201517 79 18 2.0 9.0 0.00 0.00 0.00 26 1011.0
20260501201017 79 122 0.0 9.0 0.00 0.00 0.00 25 1011.0
20260501200516 79 359 1.0 7.0 0.00 0.00 0.00 25 1011.1
20260501200016 79 359 1.0 6.0 0.00 0.00 0.00 24 1011.1
20260501195517 78 61 0.0 9.0 0.00 0.00 0.00 26 1011.1
20260501195017 78 287 4.0 9.0 0.00 0.00 0.00 25 1011.2
20260501194517 78 350 0.0 7.0 0.00 0.00 0.00 25 1011.2
20260501194017 78 359 3.0 10.0 0.00 0.00 0.00 24 1011.3
20260501193516 78 359 4.0 10.0 0.00 0.00 0.00 25 1011.3
20260501193016 78 346 2.0 10.0 0.00 0.00 0.00 24 1011.3
20260501192517 78 56 1.0 10.0 0.00 0.00 0.00 25 1011.4
20260501192017 78 338 2.0 7.0 0.00 0.00 0.00 22 1011.4
20260501191518 79 41 2.0 11.0 0.00 0.00 0.00 23 1011.5
20260501191018 79 27 1.0 7.0 0.00 0.00 0.00 24 1011.5
20260501190517 78 346 0.0 7.0 0.00 0.00 0.00 24 1011.5
20260501190017 78 295 0.0 5.0 0.00 0.00 0.00 26 1011.7
20260501185516 77 301 0.0 9.0 0.00 0.00 0.00 25 1011.8
20260501185017 77 305 3.0 9.0 0.00 0.00 0.00 23 1011.8
20260501184517 78 346 4.0 9.0 0.00 0.00 0.00 23 1011.8
20260501184017 78 284 2.0 9.0 0.00 0.00 0.00 24 1011.8
20260501183518 78 294 0.0 6.0 0.00 0.00 0.00 23 1011.7
20260501183017 78 295 2.0 6.0 0.00 0.00 0.00 23 1012.0
20260501182517 78 287 0.0 3.0 0.00 0.00 0.00 25 1011.9
20260501182016 78 281 0.0 7.0 0.00 0.00 0.00 26 1012.0
20260501181517 77 294 2.0 7.0 0.00 0.00 0.00 24 1012.1
20260501181017 77 264 2.0 7.0 0.00 0.00 0.00 26 1012.1
20260501180517 76 275 0.0 7.0 0.00 0.00 0.00 25 1012.1
20260501180017 77 299 2.0 7.0 0.00 0.00 0.00 24 1012.2
20260501175519 77 288 0.0 4.0 0.00 0.00 0.00 26 1012.2
20260501175020 76 287 0.0 6.0 0.00 0.00 0.00 27 1012.2
20260501174518 76 288 1.0 7.0 0.00 0.00 0.00 26 1012.2
20260501174019 76 333 3.0 7.0 0.00 0.00 0.00 26 1012.2
20260501173517 76 323 0.0 5.0 0.00 0.00 0.00 28 1012.2
20260501173017 75 318 0.0 6.0 0.00 0.00 0.00 27 1012.3
20260501172519 76 315 0.0 6.0 0.00 0.00 0.00 27 1012.3
20260501172018 75 329 1.0 6.0 0.00 0.00 0.00 27 1012.3
20260501171517 75 332 0.0 6.0 0.00 0.00 0.00 28 1012.3
20260501171018 75 350 0.0 4.0 0.00 0.00 0.00 28 1012.3
20260501170517 75 350 0.0 5.0 0.00 0.00 0.00 27 1012.3
20260501170017 74 346 0.0 5.0 0.00 0.00 0.00 28 1012.4
20260501165520 74 324 1.0 5.0 0.00 0.00 0.00 28 1012.5
20260501165017 73 314 1.0 6.0 0.00 0.00 0.00 30 1012.5
20260501164519 73 359 1.0 6.0 0.00 0.00 0.00 30 1012.5
20260501164020 73 270 0.0 0.0 0.00 0.00 0.00 34 1012.5
20260501163517 72 268 0.0 0.0 0.00 0.00 0.00 39 1012.6
20260501163017 71 260 0.0 0.0 0.00 0.00 0.00 39 1012.6
20260501162518 70 260 0.0 0.0 0.00 0.00 0.00 39 1012.6
20260501162020 70 258 0.0 1.0 0.00 0.00 0.00 38 1012.6
20260501161517 70 252 0.0 1.0 0.00 0.00 0.00 42 1012.6
20260501161021 70 252 0.0 0.0 0.00 0.00 0.00 42 1012.6
20260501160516 69 249 0.0 0.0 0.00 0.00 0.00 42 1012.5
20260501160019 69 177 0.0 0.0 0.00 0.00 0.00 43 1012.6
20260501155519 68 177 0.0 0.0 0.00 0.00 0.00 44 1012.6
20260501155021 67 177 0.0 0.0 0.00 0.00 0.00 42 1012.6
20260501154519 66 177 0.0 0.0 0.00 0.00 0.00 44 1012.6
20260501154021 65 177 0.0 0.0 0.00 0.00 0.00 46 1012.7
20260501153520 64 177 0.0 0.0 0.00 0.00 0.00 52 1012.7
20260501153021 62 177 0.0 0.0 0.00 0.00 0.00 51 1012.7
20260501152517 62 177 0.0 0.0 0.00 0.00 0.00 57 1012.7
20260501152023 62 177 0.0 0.0 0.00 0.00 0.00 59 1012.7
20260501151517 61 177 0.0 0.0 0.00 0.00 0.00 56 1012.6
20260501151021 60 177 0.0 0.0 0.00 0.00 0.00 60 1012.6
20260501150517 59 177 0.0 0.0 0.00 0.00 0.00 60 1012.5
20260501150017 58 177 0.0 0.0 0.00 0.00 0.00 61 1012.6
20260501145519 57 177 0.0 0.0 0.00 0.00 0.00 65 1012.6